Location: Geyikbay?r?
(36.8756°N, 30.4583°E)
Time: 01:20:42
(UTC+00:00)

Cosmos 1536 Rocket - Pass Details

Date: 05 August 2024
Orbit: 602 x 627 km, 82.5° (Epoch: 12 September)

Event Time Altitude Azimuth Distance (km) Brightness Sun altitude
Rises 17:31:59 0° 194° (SSW) 2,837 6.8 -6.6°
Reaches altitude 10° 17:34:12 10° 198° (SSW) 1,939 6.0 -7.0°
Maximum altitude 17:38:26 60° 278° (W) 696 4.2 -7.7°
Drops below altitude 10° 17:42:43 10° 359° (N) 1,961 6.5 -8.5°
Sets 17:44:59 0° 3° (N) 2,873 7.3 -8.9°
